Date,TemperatureHighF,TemperatureAvgF,TemperatureLowF,DewpointHighF,DewpointAvgF,DewpointLowF,HumidityHigh,HumidityAvg,HumidityLow,PressureMaxIn,PressureMinIn,WindSpeedMaxMPH,WindSpeedAvgMPH,GustSpeedMaxMPH,PrecipitationSumIn
2013-1-2,71.0,49.7,35.0,44.0,33.5,12.0,99,69,10,30.09,30.04,2,1,7,0.00
2013-1-3,65.0,42.4,30.0,51.0,37.9,27.0,99,88,24,30.18,30.08,4,0,8,0.00
2013-1-4,69.0,44.3,33.0,54.0,38.8,22.0,100,86,17,30.20,30.11,2,0,8,0.01
2013-1-5,57.0,49.3,39.0,57.0,49.3,39.0,99,99,99,30.21,29.90,4,0,8,0.34
2013-1-6,55.0,46.8,37.0,53.0,46.7,37.0,99,99,90,30.00,29.87,4,1,12,0.14
2013-1-11,58.0,41.2,29.0,46.0,37.6,29.0,99,88,45,30.06,29.94,5,1,14,0.01
2013-1-12,54.0,39.9,30.0,49.0,35.9,25.0,99,88,33,30.06,29.94,5,1,9,0.01
2013-1-16,64.0,42.7,28.0,43.0,30.7,11.0,99,74,13,30.23,30.04,4,0,8,0.00
2013-1-17,80.0,47.6,32.0,48.0,34.8,12.0,99,76,10,30.04,29.91,3,0,8,0.00
2013-1-18,78.0,49.8,35.0,47.0,35.6,12.0,100,73,10,30.00,29.91,3,0,8,0.00
2013-1-19,80.0,50.7,35.0,47.0,35.5,15.0,100,72,11,30.01,29.93,2,0,7,0.00
2013-1-20,81.0,50.5,33.0,43.0,31.7,9.0,100,66,10,30.00,29.88,3,0,8,0.00
2013-1-21,82.0,50.8,34.0,43.0,32.8,10.0,100,64,10,29.95,29.84,2,0,8,0.00
2013-1-22,76.0,50.6,35.0,45.0,32.5,9.0,100,63,10,29.91,29.81,4,0,6,0.00
2013-1-23,62.0,52.4,47.0,55.0,46.8,39.0,99,82,60,29.88,29.77,2,0,7,0.01
2013-1-24,61.0,53.6,49.0,61.0,53.6,49.0,99,99,99,29.98,29.84,2,0,5,0.04
2013-1-25,73.0,57.1,50.0,69.0,56.5,50.0,100,97,75,29.98,29.82,4,1,9,0.00
2013-1-26,64.0,51.6,39.0,63.0,48.0,39.0,99,89,49,29.91,29.79,8,2,17,0.01
2013-1-27,39.0,33.1,32.0,39.0,33.1,32.0,99,99,99,29.94,29.89,1,0,2,0.00
2013-1-28,32.0,32.0,32.0,32.0,32.0,32.0,99,99,99,29.94,29.94,0,0,0,0.00
2013-1-29,32.0,32.0,32.0,32.0,32.0,32.0,99,99,99,29.94,29.94,0,0,0,0.00
2013-1-30,32.0,32.0,32.0,32.0,32.0,32.0,99,99,99,29.94,29.94,0,0,0,0.00
2013-2-1,74.0,52.2,36.0,61.0,48.2,36.0,100,89,30,30.00,29.87,4,1,9,1.03
2013-2-2,64.0,48.6,41.0,60.0,48.5,41.0,100,99,83,30.04,29.97,4,0,8,0.00
2013-2-3,43.0,42.4,38.0,43.0,42.4,38.0,99,99,99,30.01,29.91,0,0,4,0.00
2013-2-4,61.0,45.3,34.0,60.0,45.1,34.0,99,98,95,29.94,29.82,4,1,10,1.04
2013-2-5,60.0,47.0,37.0,57.0,46.8,37.0,99,98,81,29.99,29.91,6,1,11,0.01
2013-2-6,67.0,45.0,34.0,55.0,42.9,34.0,100,93,45,30.04,29.96,5,1,10,0.00
2013-2-8,39.0,37.9,36.0,39.0,37.9,36.0,99,99,99,29.85,29.84,0,0,2,0.00
2013-2-15,63.0,42.5,38.0,58.0,42.2,38.0,99,98,84,30.07,30.01,2,0,3,0.00
2013-2-18,53.0,46.0,36.0,52.0,45.0,36.0,99,96,80,29.90,29.83,5,1,11,0.01
2013-3-7,60.0,47.3,37.0,53.0,43.4,33.0,99,88,37,30.12,29.97,8,1,14,0.15
2013-3-8,64.0,50.3,41.0,57.0,45.1,30.0,100,85,30,30.20,29.94,11,2,21,0.03
2013-3-9,74.0,50.9,37.0,57.0,43.0,12.0,99,82,10,30.42,30.20,8,1,14,0.00
2013-3-10,69.0,48.3,35.0,57.0,46.2,35.0,99,93,58,30.46,30.37,4,1,10,0.00
2013-3-11,71.0,49.9,36.0,58.0,42.3,11.0,99,82,10,30.37,30.21,7,1,12,0.00
2013-3-12,51.0,42.7,40.0,51.0,42.7,40.0,99,99,99,30.26,30.23,1,0,2,0.00
2013-3-13,48.0,46.7,46.0,48.0,46.7,46.0,99,99,99,30.24,30.22,1,0,2,0.00
2013-3-14,69.0,53.5,41.0,60.0,52.0,41.0,99,94,67,30.28,30.20,7,1,11,0.00
2013-3-15,78.0,54.3,41.0,61.0,47.9,20.0,100,85,12,30.24,30.15,4,1,10,0.00
2013-3-16,76.0,53.4,44.0,60.0,51.1,44.0,99,93,46,30.22,30.14,7,1,14,0.00
2013-3-17,75.0,51.5,38.0,58.0,45.4,19.0,99,85,12,30.25,30.14,6,1,11,0.00
2013-3-18,66.0,49.3,37.0,55.0,46.9,37.0,100,92,58,30.24,30.16,4,1,14,0.00
2013-3-19,69.0,52.2,42.0,58.0,46.6,31.0,100,86,24,30.27,30.17,6,1,12,0.07
2013-3-20,65.0,55.3,50.0,62.0,51.6,19.0,100,91,18,30.24,30.19,5,1,11,0.01
2013-3-21,71.0,56.0,43.0,55.0,48.2,35.0,99,80,27,30.23,30.09,8,2,12,0.00
2013-3-22,79.0,51.2,36.0,58.0,34.5,3.0,99,69,10,30.19,30.11,4,1,13,0.00
2013-3-23,77.0,50.6,35.0,52.0,37.3,6.0,100,73,10,30.24,30.14,7,1,11,0.00
2013-3-24,73.0,50.0,36.0,55.0,43.3,24.0,100,83,18,30.22,30.08,5,1,10,0.00
2013-3-25,69.0,50.2,40.0,57.0,45.7,26.0,99,88,22,30.15,30.06,7,1,13,0.00
2013-3-26,65.0,50.7,41.0,58.0,48.6,41.0,99,93,52,30.13,30.06,7,2,15,0.00
2013-3-27,67.0,53.0,42.0,64.0,51.5,42.0,99,95,68,30.15,30.07,8,2,14,0.00
2013-3-28,54.0,54.0,54.0,54.0,54.0,54.0,99,99,99,30.14,30.14,1,0,3,0.01
2013-3-29,54.0,54.0,53.0,54.0,54.0,53.0,99,99,99,30.14,29.91,1,0,3,0.01
2013-3-30,68.0,56.3,51.0,61.0,53.3,-99.9,99,94,54,29.95,29.85,8,2,15,0.09
2013-3-31,69.0,56.7,50.0,64.0,55.5,50.0,100,96,61,29.93,29.86,8,2,15,0.05
2013-4-1,66.0,56.8,48.0,63.0,55.3,48.0,100,94,72,30.01,29.90,7,1,12,0.17
2013-4-2,74.0,55.5,43.0,60.0,51.8,43.0,99,90,41,30.03,29.92,6,1,11,0.00
2013-4-3,76.0,55.0,49.0,62.0,53.6,49.0,100,95,54,29.98,29.86,4,1,14,0.00
2013-4-4,62.0,54.4,50.0,62.0,54.4,50.0,99,99,99,29.98,29.88,4,1,11,0.12
2013-4-5,67.0,57.1,49.0,64.0,55.8,48.0,99,95,71,30.04,29.96,6,1,14,0.00
2013-4-6,65.0,55.0,47.0,64.0,54.7,47.0,99,98,88,30.05,29.97,11,1,15,0.00
2013-4-7,71.0,57.0,50.0,63.0,55.5,50.0,100,95,64,30.03,29.75,7,2,16,0.01
2013-4-8,72.0,53.6,44.0,52.0,38.7,7.0,100,71,10,29.84,29.68,10,3,23,0.13
2013-4-9,82.0,58.1,40.0,49.0,32.2,8.0,99,57,10,29.90,29.82,8,2,20,0.00
2013-4-10,90.0,59.1,44.0,60.0,44.9,16.0,100,75,10,30.01,29.86,5,1,10,0.00
2013-4-11,75.0,57.4,46.0,59.0,51.8,45.0,100,85,34,29.93,29.70,8,1,13,0.00
2013-4-12,72.0,53.9,43.0,57.0,49.1,43.0,99,87,40,29.78,29.69,7,1,11,0.00
2013-4-13,74.0,55.3,44.0,59.0,49.0,36.0,99,83,25,29.78,29.68,6,1,11,0.00
2013-4-14,77.0,52.0,38.0,56.0,42.1,18.0,100,79,11,29.79,29.69,6,2,16,0.00
2013-4-15,62.0,51.3,43.0,51.0,39.3,16.0,99,72,18,29.80,29.72,12,3,24,0.01
2013-4-16,73.0,48.2,33.0,47.0,30.7,3.0,100,66,10,29.96,29.80,13,2,23,0.00
2013-4-17,77.0,55.4,41.0,41.0,23.2,6.0,88,38,10,30.09,29.96,9,2,19,0.00
2013-4-18,71.0,52.4,37.0,52.0,40.5,12.0,99,73,13,30.11,30.03,8,1,13,0.00
2013-4-19,73.0,54.1,39.0,58.0,44.6,28.0,99,77,22,30.10,29.93,6,1,11,0.00
2013-4-20,86.0,56.5,42.0,58.0,45.1,18.0,99,77,10,29.95,29.81,6,1,11,0.00
2013-4-21,90.0,57.9,42.0,61.0,44.5,16.0,99,74,10,29.87,29.76,5,1,9,0.00
2013-4-22,51.0,49.0,47.0,51.0,49.0,47.0,99,99,99,29.80,29.77,0,0,0,0.00
2013-4-29,54.0,52.7,52.0,54.0,52.7,51.0,99,99,99,29.65,29.64,0,0,0,0.00
2013-4-30,80.0,56.8,46.0,60.0,50.7,35.0,99,84,20,29.70,29.62,6,1,11,0.01
2013-5-1,68.0,54.3,44.0,58.0,51.7,44.0,100,91,52,29.94,29.70,8,2,13,0.00
2013-5-2,87.0,59.6,46.0,66.0,46.6,19.0,99,74,10,29.98,29.92,7,1,12,0.00
2013-5-3,83.0,61.4,47.0,55.0,43.7,16.0,100,68,10,29.94,29.66,7,1,12,0.00
2013-5-4,61.0,53.7,45.0,60.0,53.5,44.0,100,98,89,29.67,29.52,11,3,21,0.00
2013-5-5,69.0,57.3,49.0,58.0,52.8,41.0,99,87,36,29.66,29.50,8,2,15,0.00
2013-5-6,67.0,58.4,49.0,59.0,54.3,49.0,100,87,63,29.81,29.65,8,1,13,0.00
2013-5-7,68.0,59.2,52.0,58.0,54.6,51.0,100,86,57,29.91,29.80,8,2,15,0.00
2013-5-8,67.0,56.0,52.0,58.0,53.7,52.0,99,93,61,29.99,29.90,7,2,14,0.00
2013-5-9,72.0,57.4,51.0,56.0,52.8,50.0,99,86,47,30.03,29.93,8,2,12,0.00
2013-5-10,73.0,56.3,46.0,59.0,50.5,-99.9,100,87,52,30.03,29.94,7,2,11,0.00
2013-5-11,75.0,57.5,47.0,63.0,52.4,-99.9,99,87,39,30.00,29.91,6,1,11,0.00
2013-5-12,84.0,60.4,47.0,63.0,52.1,36.0,100,80,19,29.98,29.86,6,1,11,0.00
2013-5-13,81.0,60.5,51.0,61.0,52.7,30.0,100,81,17,29.94,29.80,7,1,11,0.00
2013-5-14,69.0,57.5,50.0,58.0,53.9,50.0,100,89,55,29.91,29.81,8,2,14,0.00
2013-5-15,72.0,55.8,44.0,56.0,48.1,42.0,100,80,35,29.94,29.86,6,1,15,0.00
2013-5-16,70.0,52.7,48.0,62.0,36.8,-99.9,99,94,66,29.91,29.82,6,1,15,0.01
2013-5-17,74.0,56.7,45.0,56.0,44.9,-99.9,100,77,31,29.94,29.85,5,1,11,0.00
2013-5-18,76.0,57.1,46.0,56.0,47.8,38.0,100,76,25,30.00,29.93,4,1,13,0.00
2013-5-19,82.0,59.5,46.0,59.0,47.2,19.0,100,74,10,29.97,29.80,6,1,11,0.00
2013-5-20,84.0,60.9,45.0,59.0,46.5,16.0,99,69,10,29.85,29.75,6,1,11,0.00
2013-5-21,77.0,57.6,47.0,57.0,45.2,11.0,99,72,10,29.86,29.76,14,2,20,0.00
2013-5-22,70.0,51.8,39.0,50.0,31.9,6.0,100,62,10,29.85,29.74,8,2,16,0.00
2013-5-23,66.0,51.3,37.0,49.0,38.7,23.0,99,68,20,29.87,29.80,7,1,13,0.00
2013-5-24,72.0,51.8,38.0,53.0,41.9,16.0,100,77,12,29.88,29.80,5,1,15,0.00
2013-5-25,70.0,53.5,40.0,52.0,44.9,40.0,99,77,35,29.93,29.85,6,1,15,0.00
2013-5-26,72.0,56.6,45.0,56.0,52.0,45.0,100,86,50,30.00,29.90,6,1,12,0.00
2013-5-27,68.0,56.9,46.0,61.0,54.1,46.0,100,91,69,30.00,29.88,4,1,11,0.00
2013-5-28,77.0,62.1,53.0,63.0,55.5,50.0,100,82,40,29.88,29.74,5,1,11,0.00
2013-5-29,79.0,60.5,48.0,58.0,50.3,29.0,99,75,17,29.82,29.72,8,2,15,0.00
2013-5-30,77.0,56.7,43.0,55.0,45.8,32.0,100,74,20,29.85,29.78,6,2,12,0.00
2013-5-31,84.0,58.4,43.0,59.0,46.3,31.0,100,72,17,29.85,29.74,6,2,11,0.00
2013-6-1,82.0,60.1,47.0,60.0,49.3,33.0,99,74,18,29.80,29.62,7,2,11,0.00
2013-6-2,66.0,55.9,47.0,57.0,52.0,47.0,100,88,59,29.65,29.59,6,2,15,0.00
2013-6-3,62.0,56.0,51.0,55.0,52.5,49.0,100,89,63,29.73,29.62,9,2,17,0.00
2013-6-4,65.0,55.3,46.0,57.0,52.2,46.0,100,90,67,29.83,29.72,10,2,17,0.00
2013-6-5,61.0,57.1,50.0,58.0,53.3,50.0,99,88,76,29.85,29.82,4,2,11,0.00
2013-6-6,61.0,61.0,61.0,53.0,53.0,53.0,76,76,76,29.85,29.85,3,3,11,0.00
2013-6-7,61.0,60.8,53.0,53.0,53.0,53.0,99,77,76,29.93,29.85,3,3,11,0.00
2013-6-8,61.0,55.8,51.0,60.0,55.8,51.0,100,99,94,29.99,29.90,9,3,15,0.00
2013-6-9,62.0,58.7,56.0,62.0,57.6,56.0,100,96,87,30.04,29.97,10,4,17,0.02
2013-6-10,67.0,61.3,57.0,57.0,53.5,49.0,97,77,53,30.10,29.99,10,3,20,0.00
2013-6-11,72.0,60.2,53.0,58.0,54.6,51.0,100,84,48,30.11,30.02,5,2,14,0.00
2013-6-12,77.0,58.3,47.0,61.0,51.0,44.0,99,81,31,30.16,30.05,6,1,12,0.00
2013-6-13,81.0,56.1,45.0,55.0,47.7,20.0,100,80,12,30.23,30.11,5,2,11,0.00
2013-6-14,83.0,56.4,45.0,56.0,47.9,30.0,100,80,17,30.13,29.94,6,1,11,0.00
2013-6-15,62.0,55.2,48.0,55.0,52.3,48.0,100,90,69,30.15,29.98,8,2,13,0.00
2013-6-16,76.0,60.1,51.0,57.0,52.1,45.0,99,79,36,30.22,30.15,7,2,11,0.00
2013-6-17,83.0,61.1,47.0,59.0,50.4,36.0,100,75,19,30.22,30.12,5,2,12,0.00
2013-6-18,77.0,59.1,51.0,59.0,48.1,24.0,100,73,15,30.18,30.09,11,2,18,0.00
2013-6-19,79.0,56.6,44.0,56.0,43.9,20.0,99,70,12,30.18,30.09,7,2,11,0.00
2013-6-20,71.0,51.9,44.0,54.0,46.5,37.0,100,84,29,30.15,30.09,5,1,10,0.00
2013-6-21,73.0,72.0,71.0,49.0,48.5,48.0,45,43,41,30.04,30.04,4,3,9,0.00
2013-6-22,76.0,62.1,45.0,58.0,52.2,45.0,99,73,37,30.07,29.98,6,2,12,0.00
2013-6-23,64.0,58.2,53.0,61.0,57.5,53.0,100,97,81,30.04,29.96,6,1,11,0.00
2013-6-24,60.0,58.9,57.0,60.0,58.9,57.0,99,99,99,30.06,29.93,4,1,8,0.03
2013-6-25,69.0,61.2,58.0,69.0,61.2,58.0,99,99,99,30.15,30.05,4,1,8,0.01
2013-6-26,84.0,68.8,60.0,71.0,61.7,56.0,100,82,40,30.17,30.08,6,2,12,0.00
2013-6-27,82.0,64.3,56.0,69.0,58.4,49.0,99,84,32,30.18,30.11,5,1,9,0.00
2013-6-28,79.0,65.5,56.0,64.0,57.1,50.0,100,79,38,30.15,30.02,6,2,11,0.00
2013-6-29,82.0,65.0,54.0,65.0,55.6,50.0,99,76,33,30.06,29.94,7,2,12,0.00
2013-6-30,80.0,63.6,52.0,63.0,55.2,51.0,99,78,37,29.99,29.89,7,2,12,0.00
2013-7-2,59.0,58.2,58.0,59.0,58.2,58.0,99,99,99,30.09,30.07,1,0,4,0.00
2013-7-3,73.0,62.7,57.0,65.0,59.1,56.0,100,89,56,30.07,29.92,6,2,11,0.00
2013-7-4,69.0,61.3,55.0,65.0,59.9,55.0,100,95,73,29.94,29.88,7,2,11,0.00
2013-7-5,69.0,60.2,51.0,60.0,55.5,51.0,99,86,59,29.96,29.90,5,2,13,0.00
2013-7-6,62.0,56.7,54.0,58.0,55.7,54.0,100,96,78,29.98,29.93,8,2,13,0.01
2013-7-7,63.0,57.7,54.0,57.0,55.6,54.0,100,93,73,30.01,29.94,8,2,16,0.00
2013-7-8,64.0,57.3,55.0,58.0,54.1,-99.9,100,92,67,30.11,30.01,6,2,15,0.00
2013-7-9,71.0,59.7,52.0,61.0,55.3,52.0,99,87,51,30.15,30.08,7,2,11,0.00
2013-7-10,63.0,56.7,54.0,61.0,54.5,-99.9,100,95,81,30.13,30.07,7,2,14,0.00
2013-7-11,63.0,56.9,54.0,59.0,55.3,54.0,99,94,74,30.10,30.05,7,2,13,0.00
2013-7-12,66.0,57.3,53.0,58.0,54.8,53.0,99,91,65,30.09,30.03,8,2,13,0.00
2013-7-13,65.0,57.5,52.0,59.0,54.9,52.0,100,91,69,30.12,30.05,7,2,14,0.00
2013-7-14,68.0,57.8,53.0,59.0,55.1,53.0,100,91,61,30.14,30.05,9,2,14,0.00
2013-7-15,62.0,55.4,53.0,57.0,54.5,53.0,99,96,72,30.07,30.04,6,1,15,0.02
2013-7-19,69.0,57.1,53.0,56.0,53.8,53.0,100,90,58,30.10,29.98,4,1,8,0.00
2013-7-20,61.0,55.4,53.0,59.0,53.9,-99.9,100,96,86,30.01,29.95,6,2,11,0.00
2013-7-21,66.0,58.0,53.0,59.0,54.7,53.0,99,89,68,30.04,29.93,8,2,13,0.00
2013-7-22,69.0,60.4,56.0,63.0,58.5,56.0,99,93,72,30.10,30.02,7,2,12,0.00
2013-7-23,68.0,61.1,57.0,63.0,58.0,56.0,99,90,67,30.14,30.08,7,2,11,0.00
2013-7-24,57.0,56.1,56.0,57.0,56.1,56.0,99,99,99,30.11,29.92,2,1,4,0.00
2013-7-25,61.0,57.1,55.0,61.0,56.8,55.0,100,98,91,30.01,29.90,6,1,12,0.00
2013-7-26,61.0,57.1,55.0,60.0,57.0,55.0,100,99,94,30.08,29.99,7,2,12,0.00
2013-7-27,62.0,57.3,55.0,62.0,57.0,55.0,100,98,87,30.01,29.86,8,2,15,0.01
2013-7-28,61.0,57.0,54.0,60.0,56.5,54.0,99,98,89,29.88,29.82,8,2,15,0.01
2013-7-29,64.0,59.2,56.0,57.0,55.5,53.0,99,88,70,30.00,29.84,10,2,15,0.00
2013-7-30,65.0,59.5,57.0,55.0,53.6,51.0,93,82,65,30.07,30.00,8,2,16,0.00
2013-7-31,70.0,60.1,53.0,56.0,53.8,51.0,99,81,55,30.07,29.98,7,2,15,0.00
2013-8-1,77.0,58.7,49.0,57.0,51.6,48.0,99,80,36,30.05,29.92,7,1,11,0.00
2013-8-2,74.0,56.8,46.0,58.0,51.8,46.0,100,86,44,29.97,29.88,8,1,14,0.00
2013-8-3,58.0,55.4,53.0,56.0,55.2,53.0,100,98,92,29.97,29.91,3,1,8,0.00
2013-8-4,62.0,56.3,54.0,59.0,54.8,53.0,100,95,78,29.98,29.94,6,1,12,0.01
2013-8-5,65.0,57.9,53.0,59.0,54.8,53.0,100,90,65,29.99,29.91,9,2,13,0.00
2013-8-6,61.0,56.8,54.0,58.0,55.8,54.0,100,96,81,30.02,29.93,6,1,15,0.00
2013-8-7,57.0,56.8,56.0,57.0,56.8,56.0,99,99,99,30.03,30.01,2,1,4,0.00
2013-8-13,69.0,61.1,55.0,55.0,54.4,54.0,99,80,60,29.91,29.87,2,1,7,0.00
2013-8-14,78.0,62.0,50.0,60.0,50.5,-99.9,99,74,41,29.95,29.84,7,2,11,0.00
2013-8-15,85.0,52.5,52.0,66.0,28.8,-99.9,100,74,18,29.91,29.83,5,1,10,0.00
2013-8-16,82.0,62.1,54.0,65.0,52.0,-99.9,99,80,36,29.93,29.86,5,1,11,0.00
2013-8-17,75.0,61.2,56.0,62.0,54.9,-99.9,99,84,49,29.96,29.83,5,1,11,0.00
2013-8-18,68.0,60.7,56.0,62.0,57.4,56.0,100,90,69,29.86,29.76,6,2,11,0.00
2013-8-19,66.0,54.6,55.0,60.0,42.3,-99.9,99,90,72,29.88,29.79,8,2,13,0.00
2013-8-20,64.0,58.2,56.0,60.0,54.7,-99.9,99,93,75,29.89,29.82,7,2,13,0.00
2013-8-21,67.0,60.5,56.0,58.0,55.2,51.0,100,84,60,29.91,29.84,11,2,15,0.00
2013-8-22,71.0,62.2,51.0,60.0,54.3,51.0,100,77,55,29.93,29.83,8,2,13,0.00
2013-8-23,77.0,62.0,55.0,58.0,55.3,51.0,100,81,40,29.88,29.75,5,1,11,0.00
2013-8-24,78.0,59.6,51.0,61.0,52.3,-99.9,99,82,42,29.86,29.77,4,1,11,0.00
2013-8-25,73.0,63.1,55.0,63.0,58.3,55.0,99,86,58,29.91,29.84,6,2,14,0.00
2013-8-26,79.0,64.3,57.0,62.0,57.4,52.0,99,81,39,29.96,29.82,5,2,12,0.00
2013-8-27,70.0,56.6,51.0,62.0,52.8,48.0,100,89,46,29.86,29.82,5,1,11,0.00
2013-8-28,77.0,67.5,62.0,62.0,58.1,52.0,100,75,46,29.89,29.81,4,2,9,0.00
2013-8-29,82.0,65.3,58.0,68.0,59.2,55.0,99,83,39,29.99,29.90,5,2,14,0.00
2013-8-30,78.0,62.8,54.0,67.0,56.8,54.0,100,83,45,29.98,29.84,5,1,10,0.00
2013-8-31,76.0,61.6,60.0,58.0,52.8,-99.9,91,78,42,29.96,29.90,4,0,10,0.00
2013-9-1,78.0,64.9,57.0,62.0,56.7,52.0,100,78,40,29.96,29.88,5,1,13,0.00
2013-9-2,80.0,69.0,62.0,60.0,57.8,53.0,89,70,40,29.97,29.88,8,1,12,0.00
2013-9-3,78.0,62.7,56.0,65.0,56.9,49.0,99,83,36,30.01,29.92,5,1,10,0.00
2013-9-4,79.0,61.7,52.0,60.0,53.4,48.0,99,78,34,30.05,29.95,6,1,11,0.00
2013-9-5,76.0,60.2,51.0,64.0,53.3,49.0,100,81,39,30.05,29.94,4,1,10,0.00
2013-9-6,76.0,59.3,50.0,58.0,50.8,47.0,100,77,37,30.02,29.87,5,1,8,0.00
2013-9-7,72.0,59.8,52.0,59.0,49.3,-99.9,99,73,43,29.91,29.85,5,1,11,0.00
2013-9-8,65.0,59.3,57.0,61.0,57.9,55.0,100,95,71,29.91,29.82,5,1,13,0.00
2013-9-9,65.0,59.1,56.0,62.0,57.8,56.0,99,95,75,29.83,29.77,5,1,11,0.00
2013-9-10,64.0,59.8,56.0,62.0,58.7,56.0,99,96,85,29.93,29.79,5,1,10,0.01
2013-9-11,57.0,55.7,54.0,56.0,55.3,54.0,99,98,96,30.00,29.99,0,0,2,0.00
2013-9-12,74.0,62.7,52.0,63.0,57.6,52.0,100,85,54,30.00,29.90,5,1,11,0.00
2013-9-13,78.0,62.6,55.0,62.0,56.7,52.0,100,84,41,29.93,29.78,4,1,11,0.00
2013-9-14,78.0,61.4,54.0,63.0,52.1,-99.9,100,78,39,29.86,29.74,5,1,11,0.00
2013-9-15,77.0,60.0,49.0,55.0,52.1,49.0,99,79,42,29.88,29.81,4,1,8,0.00
2013-9-16,75.0,63.8,51.0,65.0,54.1,51.0,100,75,48,29.91,29.86,5,1,10,0.00
2013-9-17,75.0,69.4,55.0,54.0,52.6,48.0,87,57,48,29.94,29.86,2,2,10,0.00
2013-9-18,62.0,52.6,48.0,52.0,49.7,47.0,99,90,60,29.94,29.90,2,1,3,0.00
2013-9-19,72.0,54.5,46.0,55.0,47.9,44.0,100,81,37,29.91,29.81,4,1,8,0.00
2013-9-20,66.0,58.1,47.0,62.0,55.0,46.0,100,90,64,29.93,29.84,5,1,9,0.00
2013-9-21,64.0,59.4,53.0,64.0,58.0,-99.9,99,98,99,29.97,29.89,7,1,11,0.10
2013-10-2,77.0,55.9,46.0,56.0,49.0,45.0,98,82,34,29.80,29.71,4,0,6,0.00
2013-10-3,77.0,58.2,43.0,57.0,41.8,30.0,98,65,21,29.83,29.68,8,2,12,0.00
2013-10-4,88.0,63.6,42.0,41.0,36.6,31.0,88,45,18,29.83,29.71,4,1,8,0.00
2013-10-5,87.0,78.9,50.0,36.0,33.2,28.0,43,20,13,29.91,29.83,4,2,8,0.00
2013-10-6,83.0,76.4,60.0,36.0,33.0,28.0,36,21,16,29.85,29.77,5,2,8,0.00
2013-10-7,72.0,61.0,47.0,49.0,41.9,30.0,96,55,23,29.77,29.65,4,1,8,0.00
2013-10-8,60.0,52.1,42.0,51.0,47.6,41.0,98,86,64,29.68,29.50,5,1,8,0.00
2013-10-9,62.0,52.7,44.0,49.0,44.9,40.0,95,77,46,29.53,29.41,6,1,8,0.00
2013-10-10,60.0,49.7,42.0,50.0,46.0,41.0,98,88,65,29.80,29.53,5,1,8,0.00
2013-10-11,62.0,52.7,46.0,50.0,48.3,45.0,98,86,62,29.85,29.74,6,1,8,0.00
2013-10-12,65.0,51.7,46.0,52.0,46.5,-99.9,98,87,58,29.80,29.68,5,1,8,0.00
2013-10-13,68.0,54.1,44.0,54.0,49.1,43.0,98,86,54,29.83,29.71,6,1,8,0.00
2013-10-14,82.0,59.0,43.0,47.0,43.0,38.0,98,65,22,29.85,29.71,6,1,8,0.00
2013-10-15,88.0,63.9,45.0,44.0,38.5,33.0,76,47,18,29.80,29.65,5,1,8,0.00
2013-10-16,84.0,64.0,47.0,39.0,34.7,29.0,56,37,20,29.93,29.74,4,1,8,0.00
2013-10-17,56.0,49.7,48.0,49.0,38.8,34.0,88,67,54,29.93,29.85,0,0,2,0.00
2013-10-18,77.0,57.9,42.0,52.0,43.8,31.0,99,67,22,29.93,29.85,6,2,12,0.00
2013-10-19,70.0,52.7,40.0,53.0,44.4,-99.9,100,81,41,29.96,29.89,6,2,11,0.00
2013-10-20,67.0,52.3,44.0,54.0,49.5,44.0,100,91,62,29.93,29.80,8,1,11,0.00
2013-10-21,62.0,51.1,46.0,53.0,49.5,45.0,100,94,69,29.90,29.82,8,1,11,0.00
2013-10-22,60.0,50.8,46.0,53.0,49.9,46.0,100,96,70,29.91,29.84,7,1,11,0.00
2013-10-23,56.0,50.7,47.0,52.0,50.3,47.0,100,98,88,29.87,29.82,7,1,9,0.00
2013-10-24,55.0,51.5,49.0,51.0,50.2,49.0,99,95,84,29.98,29.86,3,1,7,0.00
2013-10-25,48.0,46.9,46.0,48.0,46.4,44.0,99,98,97,30.01,29.99,0,0,0,0.00
2013-10-26,63.0,50.3,41.0,57.0,46.6,-99.9,100,90,69,30.03,29.91,6,1,10,0.00